Wind_Speed
8 9 10 10 11 11 12 12 12 13 13 13 13 14 14 14 14 15 16 16 17 17 17 16 17 17 17 17 17 17 18 18 18 19 19 19 20 20
9 10 10 11 12 12 12 12 13 12 12 13 13 14 15 15 15 16 16 17 18 18 17 17 17 17 17 17 18 18 18 19 20 20 20 21 21 21
11 11 12 12 12 12 12 13 13 13 13 13 14 15 16 16 17 17 17 17 17 17 17 17 18 17 17 18 19 19 19 20 20 21 21 22 22 22
13 13 14 14 14 14 14 14 14 15 15 15 15 16 16 17 18 18 18 18 18 18 18 19 18 18 18 19 19 19 20 20 21 21 22 23 23 23
15 15 15 15 15 15 14 14 15 15 16 17 17 17 17 17 18 18 19 19 18 18 19 19 19 19 19 19 19 20 21 21 21 22 23 23 23 24
16 16 16 16 16 17 17 17 16 16 17 18 18 17 17 17 18 18 19 19 19 19 19 19 20 20 20 20 21 21 22 22 22 23 24 24 24 25
17 17 17 17 18 18 18 18 17 17 17 17 17 17 17 17 18 19 19 19 20 19 19 20 21 21 21 22 23 23 23 23 23 24 24 24 25 26
18 18 18 18 18 18 19 19 19 19 19 18 18 18 18 18 19 20 19 19 19 20 20 21 21 22 23 24 24 24 24 24 24 24 25 25 25 25
20 20 20 20 19 19 19 19 20 20 20 19 19 19 19 19 19 19 19 20 20 20 19 19 20 21 22 23 23 24 24 24 24 24 24 25 25 25
21 21 21 21 21 21 20 20 20 21 21 21 20 19 19 19 19 20 20 21 21 20 19 19 19 20 20 21 22 23 23 23 23 24 24 24 24 24
22 22 23 22 22 22 22 22 21 21 22 22 22 21 20 20 21 21 21 22 21 20 20 20 20 21 21 20 21 22 23 23 24 24 24 24 24 24
24 24 24 23 23 23 23 23 22 23 23 23 23 23 23 23 22 22 23 23 23 22 21 21 21 21 21 21 21 22 22 22 23 23 24 24 25 25
25 25 25 25 24 24 24 24 24 24 24 24 24 24 24 24 23 24 24 24 23 23 22 22 22 22 22 22 22 22 22 21 22 23 24 24 25 25
26 26 26 25 25 25 24 24 24 24 24 25 25 25 25 24 24 25 25 24 24 23 23 23 23 23 23 23 23 23 23 23 23 24 24 25 26 26
28 28 27 27 27 26 24 24 24 25 25 25 25 25 25 24 24 25 25 25 25 25 25 25 25 25 25 25 25 25 25 25 25 26 26 27 28 28
29 29 28 27 28 27 27 26 25 25 26 26 26 26 26 26 26 26 26 26 26 26 26 26 27 27 27 27 27 27 27 27 27 28 28 29 29 29
29 29 29 29 29 29 28 28 27 27 27 27 27 27 28 28 27 28 27 27 27 27 27 27 28 29 29 29 29 29 29 29 29 29 29 30 30 30
29 29 29 30 30 30 31 30 29 29 29 29 29 29 29 28 28 28 28 28 28 28 28 28 29 29 30 30 31 30 30 31 31 31 31 31 31 31
30 30 30 30 31 31 31 30 30 30 30 30 31 30 30 29 29 29 29 29 29 29 29 30 30 31 31 31 31 32 32 33 33 32 33 33 32 32
31 31 31 31 31 31 31 32 31 31 31 31 31 30 30 30 31 31 31 31 31 31 31 32 32 33 32 32 32 33 34 34 34 34 34 34 33 33
31 31 31 31 32 32 32 32 32 32 32 31 32 32 32 31 32 32 32 32 33 33 33 34 34 34 34 34 33 33 34 35 35 34 34 34 33 33
32 32 32 33 32 32 32 32 32 32 33 33 32 33 32 33 34 34 33 33 33 34 35 36 36 35 35 35 34 34 34 35 34 35 35 34 34 34
32 32 32 31 31 32 32 32 32 32 32 32 32 32 32 33 34 35 36 36 36 36 36 36 36 35 35 35 35 34 34 34 34 34 35 35 35 34
Wind_Direction
310 311 308 306 303 298 294 293 290 288 287 288 291 291 289 285 284 283 281 280 281 278 278 276 275 274 273 270 270 269 271 274 274 274 275 277 278 277
310 311 310 308 306 304 300 297 296 292 291 290 293 292 291 288 287 286 286 283 281 281 282 280 278 273 273 271 270 271 273 274 274 274 275 278 278 278
309 306 306 306 304 302 299 295 292 291 290 290 290 291 290 290 292 291 292 288 284 282 281 280 278 276 273 272 272 273 274 275 275 275 276 278 279 279
303 302 301 301 300 298 296 292 290 289 290 289 289 289 289 291 293 294 295 293 287 283 281 279 278 277 276 275 274 275 274 274 275 277 276 276 277 278
302 300 298 299 298 298 297 295 291 291 291 291 289 289 290 292 294 296 295 294 294 289 284 280 277 277 279 278 276 275 276 275 276 276 276 274 275 277
301 299 295 295 296 294 295 293 291 292 292 292 289 288 290 292 293 293 293 290 290 291 287 284 281 280 279 279 279 278 278 277 277 276 276 275 277 278
299 297 295 295 295 294 293 292 291 292 293 291 290 287 288 291 294 293 295 293 290 290 290 285 281 279 279 279 279 279 279 278 278 277 277 277 278 278
298 295 294 297 297 295 294 292 291 293 294 292 292 291 291 293 293 293 293 294 291 288 288 284 280 279 279 279 280 279 277 278 279 278 278 279 279 279
295 292 291 294 294 294 293 292 292 292 293 294 293 292 291 291 293 294 295 295 295 294 290 289 284 283 284 282 280 280 280 279 278 278 279 279 278 279
292 292 291 292 291 291 292 291 290 290 291 292 294 291 289 290 292 294 294 295 295 295 292 291 289 287 287 285 284 283 281 280 279 278 279 279 279 281
288 288 289 287 288 289 289 289 288 288 289 291 292 291 289 290 291 292 292 293 294 293 290 288 287 288 290 290 288 286 284 281 279 280 280 279 279 279
288 288 288 287 287 286 287 286 287 287 287 288 289 290 289 288 289 290 291 291 291 290 289 288 287 288 289 290 291 290 288 285 282 280 280 281 281 280
291 289 287 287 286 285 285 285 285 285 285 286 287 288 288 288 289 290 290 290 289 289 287 286 286 288 288 290 290 289 288 286 284 284 284 283 283 284
289 289 286 285 284 284 284 284 284 284 285 285 286 287 287 288 289 290 290 289 290 289 288 287 286 287 288 288 289 287 287 286 285 285 285 284 284 285
286 287 286 284 284 284 284 285 285 285 285 285 285 286 286 287 289 290 290 289 289 287 287 287 287 287 288 288 287 285 285 286 286 286 286 286 285 285
284 283 284 286 284 283 283 284 286 286 287 286 286 285 285 286 287 288 288 288 288 287 286 286 287 287 287 288 287 286 286 285 285 285 285 285 285 284
284 283 282 282 283 283 282 283 284 285 286 287 287 287 285 285 286 287 285 285 286 287 286 286 286 287 286 286 286 287 286 285 285 284 284 285 285 285
284 284 284 283 284 282 281 283 283 285 286 286 287 288 286 284 285 285 284 285 286 285 285 285 286 286 286 286 287 287 287 286 286 285 284 285 285 284
284 285 284 284 283 283 282 283 284 286 286 285 286 286 286 284 285 284 283 283 284 284 284 285 285 285 286 287 288 288 287 287 286 284 283 284 283 282
285 284 284 284 283 284 284 285 285 285 285 286 287 287 285 285 285 284 282 282 283 284 285 286 286 287 288 289 288 288 288 287 286 285 283 282 281 281
284 284 284 285 284 283 283 286 286 286 286 287 287 286 285 284 284 283 282 281 282 283 285 286 286 287 288 288 288 287 287 287 287 285 283 282 282 281
283 282 283 285 284 283 283 284 285 287 286 284 285 285 283 283 283 283 282 282 283 284 284 285 286 286 286 287 287 287 286 286 286 285 284 283 283 281
282 282 282 283 282 283 284 285 284 285 286 285 285 285 283 283 283 283 283 283 284 284 285 286 285 285 285 286 287 287 286 285 285 284 284 283 283 281
Height
5873 5872 5871 5869 5868 5866 5865 5864 5863 5862 5861 5859 5858 5856 5855 5854 5853 5852 5851 5850 5849 5847 5846 5845 5845 5844 5844 5843 5843 5842 5842 5841 5841 5840 5839 5839 5838 5837
5870 5869 5868 5866 5865 5863 5861 5860 5859 5858 5857 5856 5854 5853 5851 5850 5848 5847 5846 5845 5844 5842 5841 5840 5840 5839 5839 5838 5838 5837 5837 5836 5836 5835 5834 5833 5832 5832
5868 5866 5865 5863 5861 5860 5858 5856 5855 5854 5853 5852 5850 5849 5847 5845 5844 5842 5841 5839 5838 5837 5836 5835 5835 5834 5834 5833 5832 5832 5831 5831 5830 5829 5828 5828 5827 5826
5865 5863 5861 5859 5858 5856 5854 5853 5851 5850 5849 5847 5846 5844 5843 5841 5839 5838 5836 5834 5833 5832 5831 5830 5830 5829 5829 5828 5827 5826 5825 5825 5824 5823 5822 5821 5820 5819
5860 5859 5857 5855 5854 5852 5850 5849 5847 5846 5844 5843 5841 5840 5838 5837 5835 5833 5831 5830 5828 5827 5826 5825 5824 5824 5823 5822 5822 5820 5820 5819 5818 5817 5816 5815 5814 5813
5856 5854 5852 5851 5849 5848 5846 5845 5843 5841 5840 5838 5836 5835 5834 5832 5830 5828 5827 5825 5823 5822 5820 5819 5819 5818 5817 5816 5816 5814 5813 5813 5812 5810 5809 5808 5807 5806
5851 5850 5848 5846 5844 5843 5841 5840 5838 5836 5834 5833 5831 5830 5829 5827 5825 5823 5821 5819 5817 5816 5815 5814 5813 5812 5811 5810 5809 5808 5807 5806 5805 5804 5802 5801 5800 5799
5846 5845 5843 5841 5839 5837 5836 5835 5833 5831 5829 5828 5826 5825 5823 5822 5820 5818 5816 5814 5812 5811 5809 5808 5806 5805 5804 5803 5802 5801 5800 5799 5798 5796 5795 5794 5793 5791
5840 5839 5837 5836 5834 5832 5831 5829 5828 5826 5824 5822 5820 5819 5818 5816 5814 5813 5811 5809 5807 5805 5803 5802 5800 5799 5797 5796 5795 5794 5792 5791 5790 5789 5788 5787 5785 5784
5834 5833 5831 5830 5828 5826 5825 5823 5822 5820 5818 5817 5815 5813 5812 5810 5808 5807 5805 5803 5802 5799 5797 5796 5794 5792 5791 5789 5788 5786 5785 5784 5783 5782 5780 5779 5779 5777
5828 5826 5825 5823 5821 5820 5818 5817 5816 5814 5812 5811 5809 5807 5805 5804 5802 5801 5799 5797 5796 5794 5791 5790 5788 5786 5785 5783 5782 5780 5778 5776 5775 5774 5773 5772 5771 5770
5821 5819 5818 5816 5814 5813 5811 5810 5809 5808 5806 5804 5803 5801 5800 5798 5796 5795 5793 5791 5789 5788 5786 5784 5782 5780 5779 5778 5776 5774 5772 5770 5768 5767 5766 5765 5764 5762
5813 5812 5810 5808 5807 5805 5804 5803 5802 5800 5799 5797 5796 5794 5793 5791 5790 5788 5786 5785 5782 5781 5780 5778 5776 5775 5773 5772 5770 5767 5765 5764 5762 5760 5759 5758 5756 5755
5806 5804 5802 5801 5799 5797 5796 5795 5794 5793 5791 5790 5789 5787 5786 5784 5783 5781 5779 5778 5776 5774 5772 5771 5770 5768 5767 5765 5763 5761 5759 5757 5755 5754 5752 5751 5749 5747
5797 5796 5794 5792 5791 5789 5788 5787 5786 5785 5784 5782 5781 5779 5778 5777 5775 5774 5772 5770 5769 5767 5765 5764 5762 5761 5760 5758 5756 5754 5752 5750 5748 5746 5744 5743 5741 5739
5788 5787 5785 5784 5783 5782 5781 5780 5778 5777 5776 5775 5773 5772 5770 5769 5768 5766 5765 5763 5761 5760 5758 5756 5754 5753 5752 5750 5749 5747 5744 5742 5740 5738 5736 5735 5733 5731
5779 5778 5777 5776 5775 5774 5772 5771 5770 5769 5768 5766 5765 5764 5762 5761 5760 5758 5756 5755 5754 5752 5750 5748 5746 5745 5743 5742 5740 5738 5736 5734 5732 5730 5728 5726 5724 5722
5770 5769 5768 5767 5766 5765 5764 5763 5762 5761 5759 5758 5757 5755 5754 5753 5751 5750 5748 5746 5745 5743 5742 5740 5738 5736 5735 5733 5732 5729 5727 5725 5723 5721 5719 5717 5715 5713
5761 5760 5759 5758 5757 5756 5755 5754 5753 5752 5750 5749 5748 5746 5745 5743 5742 5741 5739 5738 5736 5735 5733 5731 5729 5727 5726 5724 5722 5720 5718 5715 5713 5711 5709 5707 5705 5703
5752 5751 5750 5749 5747 5746 5746 5745 5744 5742 5741 5739 5738 5736 5735 5734 5733 5731 5730 5728 5727 5725 5724 5722 5720 5718 5716 5715 5713 5711 5707 5705 5703 5701 5699 5697 5695 5693
5742 5741 5741 5739 5738 5737 5736 5735 5733 5732 5731 5729 5728 5726 5725 5724 5722 5721 5720 5719 5717 5716 5714 5712 5710 5708 5706 5704 5702 5700 5697 5694 5692 5690 5688 5686 5684 5682
5732 5732 5731 5729 5728 5727 5726 5725 5723 5722 5721 5719 5718 5716 5714 5713 5712 5710 5709 5708 5707 5705 5704 5702 5699 5697 5695 5693 5691 5689 5687 5683 5681 5679 5677 5675 5673 5671
5723 5722 5720 5719 5718 5717 5715 5714 5713 5712 5711 5709 5707 5706 5704 5702 5701 5699 5698 5697 5695 5694 5692 5690 5688 5686 5684 5681 5679 5677 5675 5672 5670 5668 5666 5664 5662 5660